{"data":{"norad_id":56030,"intl_designator":"2023-042AW","name":"STARLINK-5781","alt_names":[],"object_type":"PAYLOAD","status":"ACTIVE","operator":null,"country":"US","launch_date":"2023-03-24","launch_site_code":"AFETR","launch_vehicle":null,"mission":null,"orbit_class":"UNKNOWN","rcs_meters":null,"size_class":null,"mass_kg":null,"dimensions":null,"purposes":["comms"],"wikipedia_slug":null,"has_3d_model":false,"image_url":null,"decayed_at":null,"tle_current":{"epoch":"2026-09-20T09:29:11.467104Z","epoch_age_seconds":115210,"freshness":"FRESH","line1":"1 56030U 23042AW  26263.39527161  .00000096  00000+0  13016-4 0  9997","line2":"2 56030  43.0055  25.5848 0001674 270.0481  90.0179 15.27575510192810","mean_motion":15.2757551,"eccentricity":0.0001674,"inclination_deg":43.0055,"raan_deg":25.5848,"arg_perigee_deg":270.0481,"mean_anomaly_deg":90.0179,"bstar":1.3016e-5,"rev_number":19281,"period_min":94.26702579174,"perigee_km":481.91397594473,"apogee_km":484.21110555097,"semimajor_km":6861.1995407479,"source":"CELESTRAK","updated_at":"2026-09-21T09:00:33.358767Z"}}}